START_TIME,STEP,MOV.,A46,t_acc.,A13,t_acc.,M47,t_acc.,A17,t_acc.,A28,t_acc.,M38,t_acc.
1979-08-01 12:00:24.390 ,0,0,,0,7.,4.8,1.,4.8,,0,0.,4.8,1.,4.8
1979-08-01 12:00:29.190 ,0,0,,0,2.,4.8,0.,4.8,,0,0.,4.8,2.,4.8
1979-08-01 12:00:33.990 ,0,0,,0,6.,4.8,0.,4.8,,0,1.,4.8,2.,4.8
1979-08-01 12:00:38.790 ,0,0,,0,0.,4.8,0.,4.8,,0,0.,4.8,0.,4.8
1979-08-01 12:00:43.590 ,0,0,,0,0.,4.8,0.,4.8,,0,0.,4.8,1.,4.8
1979-08-01 12:01:36.390 ,0,0,,0,0.,4.8,0.,4.8,,0,0.,4.8,0.,4.8
1979-08-01 12:01:41.190 ,0,0,,0,0.,4.8,0.,4.8,,0,0.,4.8,0.,4.8
1979-08-01 12:01:45.990 ,0,0,,0,0.,4.8,0.,4.8,,0,0.,4.8,1.,4.8
1979-08-01 12:01:50.790 ,0,0,,0,2.,4.8,0.,4.8,,0,0.,4.8,1.,4.8
1979-08-01 12:01:55.590 ,0,0,,0,2.,4.8,0.,4.8,,0,0.,4.8,1.,4.8
1979-08-01 12:02:00.390 ,0,0,,0,2.,4.8,0.,4.8,,0,0.,4.8,0.,4.8
1979-08-01 12:02:05.190 ,0,0,,0,3.,4.8,0.,4.8,,0,0.,4.8,0.,4.8
1979-08-01 12:02:09.990 ,0,0,,0,2.,4.8,0.,4.8,,0,0.,4.8,0.,4.8
1979-08-01 12:02:14.790 ,0,0,,0,0.,4.8,0.,4.8,,0,0.,4.8,0.,4.8
1979-08-01 12:02:19.590 ,0,0,,0,0.,4.8,0.,4.8,,0,0.,4.8,0.,4.8
1979-08-01 12:02:24.390 ,3,0,,0,0.,4.8,0.,4.8,,0,0.,4.8,0.,4.8
1979-08-01 12:02:29.190 ,3,0,,0,0.,4.8,0.,4.8,,0,0.,4.8,0.,4.8
1979-08-01 12:02:33.990 ,3,0,,0,0.,4.8,0.,4.8,,0,0.,4.8,0.,4.8
1979-08-01 12:02:38.790 ,3,0,,0,2.,4.8,0.,4.8,,0,0.,4.8,1.,4.8
1979-08-01 12:02:43.590 ,3,0,,0,1.,4.8,0.,4.8,,0,0.,4.8,0.,4.8
1979-08-01 12:02:48.390 ,3,0,,0,5.,4.8,0.,4.8,,0,0.,4.8,0.,4.8
1979-08-01 12:02:53.190 ,3,0,,0,4.,4.8,0.,4.8,,0,0.,4.8,1.,4.8
1979-08-01 12:02:57.990 ,3,0,,0,2.,4.8,0.,4.8,,0,0.,4.8,0.,4.8
1979-08-01 12:03:02.790 ,3,0,,0,0.,4.8,0.,4.8,,0,0.,4.8,0.,4.8
1979-08-01 12:03:07.590 ,3,0,,0,0.,4.8,1.,4.8,,0,0.,4.8,1.,4.8
1979-08-01 12:03:12.390 ,4,0,,0,0.,4.8,1.,4.8,,0,0.,4.8,0.,4.8
1979-08-01 12:03:17.190 ,4,0,,0,0.,4.8,0.,4.8,,0,0.,4.8,0.,4.8
1979-08-01 12:03:21.990 ,4,0,,0,0.,4.8,0.,4.8,,0,0.,4.8,1.,4.8
1979-08-01 12:03:26.790 ,4,0,,0,3.,4.8,0.,4.8,,0,0.,4.8,0.,4.8
1979-08-01 12:03:31.590 ,4,0,,0,3.,4.8,0.,4.8,,0,0.,4.8,1.,4.8
1979-08-01 12:03:36.390 ,4,0,,0,1.,4.8,0.,4.8,,0,0.,4.8,0.,4.8
1979-08-01 12:03:41.190 ,4,0,,0,3.,4.8,0.,4.8,,0,1.,4.8,1.,4.8
1979-08-01 12:03:45.990 ,4,0,,0,4.,4.8,0.,4.8,,0,0.,4.8,0.,4.8
1979-08-01 12:03:50.790 ,4,0,,0,0.,4.8,0.,4.8,,0,0.,4.8,1.,4.8
1979-08-01 12:03:55.590 ,4,0,,0,0.,4.8,0.,4.8,,0,0.,4.8,0.,4.8
1979-08-01 12:04:00.390 ,5,0,,0,0.,4.8,0.,4.8,,0,0.,4.8,0.,4.8
1979-08-01 12:04:05.190 ,5,0,,0,0.,4.8,0.,4.8,,0,0.,4.8,0.,4.8
1979-08-01 12:04:09.990 ,5,0,,0,1.,4.8,0.,4.8,,0,0.,4.8,1.,4.8
1979-08-01 12:04:14.790 ,5,0,,0,3.,4.8,0.,4.8,,0,0.,4.8,0.,4.8
1979-08-01 12:04:19.590 ,5,0,,0,3.,4.8,1.,4.8,,0,0.,4.8,0.,4.8
1979-08-01 12:04:24.390 ,5,0,,0,4.,4.8,0.,4.8,,0,0.,4.8,1.,4.8
1979-08-01 12:04:29.190 ,5,0,,0,4.,4.8,0.,4.8,,0,0.,4.8,0.,4.8
1979-08-01 12:04:33.990 ,5,0,,0,,0,,0,,0,,0,,0
1979-08-01 12:04:38.790 ,5,0,,0,0.,4.8,0.,4.8,,0,0.,4.8,0.,4.8
1979-08-01 12:04:43.590 ,5,0,,0,1.,4.8,0.,4.8,,0,0.,4.8,0.,4.8
1979-08-01 12:04:48.390 ,6,0,,0,0.,4.8,0.,4.8,,0,0.,4.8,0.,4.8
1979-08-01 12:04:53.190 ,6,0,,0,0.,4.8,0.,4.8,,0,0.,4.8,0.,4.8
1979-08-01 12:04:57.990 ,6,0,,0,0.,4.8,0.,4.8,,0,0.,4.8,2.,4.8
1979-08-01 12:05:02.790 ,6,0,,0,4.,4.8,2.,4.8,,0,0.,4.8,1.,4.8
1979-08-01 12:05:07.590 ,6,0,,0,5.,4.8,0.,4.8,,0,0.,4.8,1.,4.8
1979-08-01 12:05:12.390 ,6,0,,0,2.,4.8,0.,4.8,,0,0.,4.8,0.,4.8
1979-08-01 12:05:17.190 ,6,0,,0,7.,4.8,0.,4.8,,0,0.,4.8,1.,4.8
1979-08-01 12:05:21.990 ,6,0,,0,5.,4.8,1.,4.8,,0,0.,4.8,2.,4.8
1979-08-01 12:05:26.790 ,6,0,,0,0.,4.8,0.,4.8,,0,0.,4.8,1.,4.8
1979-08-01 12:05:31.590 ,6,0,,0,0.,4.8,0.,4.8,,0,0.,4.8,0.,4.8
1979-08-01 12:05:36.390 ,7,0,,0,0.,4.8,0.,4.8,,0,0.,4.8,0.,4.8
1979-08-01 12:05:41.190 ,7,0,,0,0.,4.8,0.,4.8,,0,0.,4.8,2.,4.8
1979-08-01 12:05:45.990 ,7,0,,0,1.,4.8,0.,4.8,,0,0.,4.8,0.,4.8
1979-08-01 12:05:50.790 ,7,0,,0,9.,4.8,0.,4.8,,0,0.,4.8,0.,4.8
1979-08-01 12:05:55.590 ,7,0,,0,9.,4.8,0.,4.8,,0,0.,4.8,0.,4.8
1979-08-01 12:06:00.390 ,7,0,,0,13.,4.8,0.,4.8,,0,0.,4.8,0.,4.8
1979-08-01 12:06:05.190 ,7,0,,0,12.,4.8,0.,4.8,,0,0.,4.8,0.,4.8
1979-08-01 12:06:09.990 ,7,0,,0,6.,4.8,0.,4.8,,0,0.,4.8,0.,4.8
1979-08-01 12:06:14.790 ,7,0,,0,0.,4.8,0.,4.8,,0,0.,4.8,0.,4.8
1979-08-01 12:06:19.590 ,7,0,,0,0.,4.8,0.,4.8,,0,0.,4.8,0.,4.8
1979-08-01 12:07:12.390 ,0,0,,0,0.,4.8,0.,4.8,,0,0.,4.8,0.,4.8
1979-08-01 12:07:17.190 ,0,0,,0,0.,4.8,0.,4.8,,0,0.,4.8,0.,4.8
1979-08-01 12:07:21.990 ,0,0,,0,1.,4.8,0.,4.8,,0,0.,4.8,2.,4.8
1979-08-01 12:07:26.790 ,0,0,,0,4.,4.8,1.,4.8,,0,0.,4.8,1.,4.8
1979-08-01 12:07:31.590 ,0,0,,0,4.,4.8,0.,4.8,,0,0.,4.8,0.,4.8
1979-08-01 12:07:36.390 ,0,0,,0,2.,4.8,0.,4.8,,0,0.,4.8,1.,4.8
1979-08-01 12:07:41.190 ,0,0,,0,4.,4.8,0.,4.8,,0,0.,4.8,2.,4.8
1979-08-01 12:07:45.990 ,0,0,,0,2.,4.8,0.,4.8,,0,0.,4.8,1.,4.8
1979-08-01 12:07:50.790 ,0,0,,0,0.,4.8,0.,4.8,,0,0.,4.8,1.,4.8
1979-08-01 12:07:55.590 ,0,0,,0,0.,4.8,0.,4.8,,0,0.,4.8,1.,4.8
1979-08-01 12:08:00.390 ,5,0,,0,0.,4.8,0.,4.8,,0,0.,4.8,2.,4.8
1979-08-01 12:08:05.190 ,5,0,,0,0.,4.8,0.,4.8,,0,0.,4.8,0.,4.8
1979-08-01 12:08:09.990 ,5,0,,0,1.,4.8,0.,4.8,,0,0.,4.8,0.,4.8
1979-08-01 12:08:14.790 ,5,0,,0,6.,4.8,1.,4.8,,0,0.,4.8,0.,4.8
1979-08-01 12:08:19.590 ,5,0,,0,2.,4.8,0.,4.8,,0,0.,4.8,0.,4.8
1979-08-01 12:08:24.390 ,5,0,,0,4.,4.8,0.,4.8,,0,0.,4.8,0.,4.8
1979-08-01 12:08:29.190 ,5,0,,0,4.,4.8,0.,4.8,,0,0.,4.8,1.,4.8
1979-08-01 12:08:33.990 ,5,0,,0,4.,4.8,0.,4.8,,0,0.,4.8,1.,4.8
1979-08-01 12:08:38.790 ,5,0,,0,0.,4.8,0.,4.8,,0,0.,4.8,1.,4.8
1979-08-01 12:08:43.590 ,5,0,,0,0.,4.8,0.,4.8,,0,0.,4.8,0.,4.8
1979-08-01 12:08:48.390 ,4,0,,0,0.,4.8,0.,4.8,,0,0.,4.8,1.,4.8
1979-08-01 12:08:53.190 ,4,0,,0,0.,4.8,0.,4.8,,0,0.,4.8,0.,4.8
1979-08-01 12:08:57.990 ,4,0,,0,0.,4.8,0.,4.8,,0,0.,4.8,0.,4.8
1979-08-01 12:09:02.790 ,4,0,,0,4.,4.8,1.,4.8,,0,0.,4.8,0.,4.8
1979-08-01 12:09:07.590 ,4,0,,0,6.,4.8,0.,4.8,,0,0.,4.8,1.,4.8
1979-08-01 12:09:12.390 ,4,0,,0,2.,4.8,0.,4.8,,0,0.,4.8,1.,4.8
1979-08-01 12:09:17.190 ,4,0,,0,4.,4.8,0.,4.8,,0,0.,4.8,0.,4.8
1979-08-01 12:09:21.990 ,4,0,,0,6.,4.8,1.,4.8,,0,1.,4.8,0.,4.8
1979-08-01 12:09:26.790 ,4,0,,0,0.,4.8,0.,4.8,,0,0.,4.8,2.,4.8
1979-08-01 12:09:31.590 ,4,0,,0,0.,4.8,0.,4.8,,0,0.,4.8,0.,4.8
1979-08-01 12:09:36.390 ,3,0,,0,0.,4.8,0.,4.8,,0,0.,4.8,1.,4.8
1979-08-01 12:09:41.190 ,3,0,,0,0.,4.8,0.,4.8,,0,0.,4.8,0.,4.8
1979-08-01 12:09:45.990 ,3,0,,0,1.,4.8,0.,4.8,,0,0.,4.8,0.,4.8
1979-08-01 12:09:50.790 ,3,0,,0,6.,4.8,1.,4.8,,0,0.,4.8,1.,4.8
1979-08-01 12:09:55.590 ,3,0,,0,3.,4.8,0.,4.8,,0,0.,4.8,1.,4.8
1979-08-01 12:10:00.390 ,3,0,,0,3.,4.8,1.,4.8,,0,0.,4.8,0.,4.8
1979-08-01 12:10:05.190 ,3,0,,0,2.,4.8,0.,4.8,,0,0.,4.8,0.,4.8
1979-08-01 12:10:09.990 ,3,0,,0,4.,4.8,1.,4.8,,0,0.,4.8,0.,4.8
1979-08-01 12:10:14.790 ,3,0,,0,0.,4.8,0.,4.8,,0,0.,4.8,1.,4.8
1979-08-01 12:10:19.590 ,3,0,,0,0.,4.8,0.,4.8,,0,0.,4.8,0.,4.8
1979-08-01 12:10:24.390 ,2,0,,0,0.,4.8,0.,4.8,,0,0.,4.8,0.,4.8
1979-08-01 12:10:29.190 ,2,0,,0,0.,4.8,0.,4.8,,0,0.,4.8,1.,4.8
1979-08-01 12:10:33.990 ,2,0,,0,0.,4.8,0.,4.8,,0,0.,4.8,0.,4.8
1979-08-01 12:10:38.790 ,2,0,,0,6.,4.8,0.,4.8,,0,0.,4.8,1.,4.8
1979-08-01 12:10:43.590 ,2,0,,0,5.,4.8,1.,4.8,,0,0.,4.8,1.,4.8
1979-08-01 12:10:48.390 ,2,0,,0,6.,4.8,0.,4.8,,0,0.,4.8,1.,4.8
1979-08-01 12:10:53.190 ,2,0,,0,2.,4.8,0.,4.8,,0,0.,4.8,0.,4.8
1979-08-01 12:10:57.990 ,2,0,,0,2.,4.8,0.,4.8,,0,0.,4.8,0.,4.8
1979-08-01 12:11:02.790 ,2,0,,0,0.,4.8,0.,4.8,,0,0.,4.8,1.,4.8
1979-08-01 12:11:07.590 ,2,0,,0,0.,4.8,0.,4.8,,0,0.,4.8,0.,4.8
1979-08-01 12:11:12.390 ,0,0,,0,0.,4.8,0.,4.8,,0,0.,4.8,0.,4.8
1979-08-01 12:11:17.190 ,0,0,,0,0.,4.8,0.,4.8,,0,0.,4.8,0.,4.8
1979-08-01 12:11:21.990 ,0,0,,0,0.,4.8,0.,4.8,,0,0.,4.8,0.,4.8
1979-08-01 12:11:26.790 ,0,0,,0,0.,4.8,0.,4.8,,0,0.,4.8,0.,4.8
1979-08-01 12:11:31.590 ,0,0,,0,,0,,0,,0,,0,,0
1979-08-01 12:11:36.390 ,0,0,,0,1.,4.8,0.,4.8,,0,0.,4.8,2.,4.8
1979-08-01 12:11:41.190 ,0,0,,0,3.,4.8,0.,4.8,,0,0.,4.8,0.,4.8
1979-08-01 12:11:45.990 ,0,0,,0,0.,4.8,0.,4.8,,0,0.,4.8,2.,4.8
1979-08-01 12:11:50.790 ,0,0,,0,0.,4.8,0.,4.8,,0,0.,4.8,0.,4.8
1979-08-01 12:11:55.590 ,0,0,,0,0.,4.8,0.,4.8,,0,0.,4.8,0.,4.8
1979-08-01 12:12:00.390 ,0,0,,0,0.,4.8,0.,4.8,,0,0.,4.8,0.,4.8
1979-08-01 12:12:05.190 ,0,0,,0,0.,4.8,0.,4.8,,0,0.,4.8,1.,4.8
1979-08-01 12:12:09.990 ,0,0,,0,0.,4.8,0.,4.8,,0,0.,4.8,1.,4.8
1979-08-01 12:12:14.790 ,0,0,,0,9.,4.8,1.,4.8,,0,0.,4.8,1.,4.8
1979-08-01 12:12:19.590 ,0,0,,0,4.,4.8,1.,4.8,,0,0.,4.8,3.,4.8
1979-08-01 12:12:24.390 ,0,0,,0,8.,4.8,1.,4.8,,0,0.,4.8,0.,4.8
1979-08-01 12:12:29.190 ,0,0,,0,11.,4.8,2.,4.8,,0,0.,4.8,2.,4.8
1979-08-01 12:12:33.990 ,0,0,,0,4.,4.8,1.,4.8,,0,0.,4.8,0.,4.8
1979-08-01 12:12:38.790 ,0,0,,0,0.,4.8,0.,4.8,,0,0.,4.8,1.,4.8
1979-08-01 12:12:43.590 ,0,0,,0,0.,4.8,0.,4.8,,0,0.,4.8,2.,4.8
1979-08-01 12:12:48.390 ,0,0,,0,0.,4.8,0.,4.8,,0,0.,4.8,3.,4.8
1979-08-01 12:12:53.190 ,0,0,,0,0.,4.8,0.,4.8,,0,0.,4.8,2.,4.8
1979-08-01 12:12:57.990 ,0,0,,0,2.,4.8,0.,4.8,,0,0.,4.8,1.,4.8
1979-08-01 12:13:02.790 ,0,0,,0,6.,4.8,3.,4.8,,0,0.,4.8,0.,4.8
1979-08-01 12:13:07.590 ,0,0,,0,3.,4.8,1.,4.8,,0,0.,4.8,1.,4.8
1979-08-01 12:13:12.390 ,0,0,,0,4.,4.8,1.,4.8,,0,0.,4.8,2.,4.8
1979-08-01 12:13:17.190 ,0,0,,0,5.,4.8,0.,4.8,,0,0.,4.8,1.,4.8
1979-08-01 12:13:21.990 ,0,0,,0,9.,4.8,0.,4.8,,0,0.,4.8,3.,4.8
1979-08-01 12:13:26.790 ,0,0,,0,0.,4.8,0.,4.8,,0,0.,4.8,2.,4.8
1979-08-01 12:13:31.590 ,0,0,,0,0.,4.8,0.,4.8,,0,0.,4.8,1.,4.8
1979-08-01 12:13:36.390 ,1,0,,0,0.,4.8,0.,4.8,,0,0.,4.8,4.,4.8
1979-08-01 12:13:41.190 ,1,0,,0,0.,4.8,0.,4.8,,0,0.,4.8,2.,4.8
1979-08-01 12:13:45.990 ,1,0,,0,1.,4.8,0.,4.8,,0,0.,4.8,0.,4.8
1979-08-01 12:13:50.790 ,1,0,,0,3.,4.8,0.,4.8,,0,0.,4.8,2.,4.8
1979-08-01 12:13:55.590 ,1,0,,0,7.,4.8,2.,4.8,,0,0.,4.8,0.,4.8
1979-08-01 12:14:00.390 ,1,0,,0,0.,4.8,0.,4.8,,0,0.,4.8,0.,4.8
1979-08-01 12:14:05.190 ,1,0,,0,4.,4.8,0.,4.8,,0,0.,4.8,1.,4.8
1979-08-01 12:14:09.990 ,1,0,,0,4.,4.8,0.,4.8,,0,0.,4.8,2.,4.8
1979-08-01 12:14:14.790 ,1,0,,0,0.,4.8,0.,4.8,,0,0.,4.8,1.,4.8
1979-08-01 12:14:19.590 ,1,0,,0,0.,4.8,0.,4.8,,0,0.,4.8,0.,4.8
1979-08-01 12:14:24.390 ,2,0,,0,0.,4.8,0.,4.8,,0,0.,4.8,0.,4.8
1979-08-01 12:14:29.190 ,2,0,,0,0.,4.8,0.,4.8,,0,0.,4.8,0.,4.8
1979-08-01 12:14:33.990 ,2,0,,0,1.,4.8,0.,4.8,,0,0.,4.8,0.,4.8
1979-08-01 12:14:38.790 ,2,0,,0,4.,4.8,0.,4.8,,0,0.,4.8,0.,4.8
1979-08-01 12:14:43.590 ,2,0,,0,4.,4.8,1.,4.8,,0,0.,4.8,0.,4.8
1979-08-01 12:14:48.390 ,2,0,,0,5.,4.8,0.,4.8,,0,0.,4.8,0.,4.8
1979-08-01 12:14:53.190 ,2,0,,0,1.,4.8,0.,4.8,,0,0.,4.8,0.,4.8
1979-08-01 12:14:57.990 ,2,0,,0,3.,4.8,0.,4.8,,0,0.,4.8,0.,4.8
1979-08-01 12:15:02.790 ,2,0,,0,0.,4.8,0.,4.8,,0,0.,4.8,1.,4.8
1979-08-01 12:15:07.590 ,2,0,,0,0.,4.8,0.,4.8,,0,0.,4.8,0.,4.8
1979-08-01 12:15:12.390 ,3,0,,0,0.,4.8,0.,4.8,,0,0.,4.8,1.,4.8
1979-08-01 12:15:17.190 ,3,0,,0,0.,4.8,0.,4.8,,0,0.,4.8,0.,4.8
1979-08-01 12:15:21.990 ,3,0,,0,1.,4.8,0.,4.8,,0,0.,4.8,0.,4.8
1979-08-01 12:15:26.790 ,3,0,,0,3.,4.8,1.,4.8,,0,0.,4.8,0.,4.8
1979-08-01 12:15:31.590 ,3,0,,0,5.,4.8,0.,4.8,,0,0.,4.8,0.,4.8
1979-08-01 12:15:36.390 ,3,0,,0,3.,4.8,1.,4.8,,0,0.,4.8,0.,4.8
1979-08-01 12:15:41.190 ,3,0,,0,3.,4.8,0.,4.8,,0,0.,4.8,1.,4.8
1979-08-01 12:15:45.990 ,3,0,,0,8.,4.8,2.,4.8,,0,0.,4.8,0.,4.8
1979-08-01 12:15:50.790 ,3,0,,0,0.,4.8,1.,4.8,,0,0.,4.8,1.,4.8
1979-08-01 12:15:55.590 ,3,0,,0,0.,4.8,0.,4.8,,0,0.,4.8,1.,4.8
1979-08-01 12:16:00.390 ,4,0,,0,0.,4.8,0.,4.8,,0,1.,4.8,0.,4.8
1979-08-01 12:16:05.190 ,4,0,,0,0.,4.8,0.,4.8,,0,0.,4.8,0.,4.8
1979-08-01 12:16:09.990 ,4,0,,0,1.,4.8,0.,4.8,,0,0.,4.8,1.,4.8
1979-08-01 12:16:14.790 ,4,0,,0,7.,4.8,1.,4.8,,0,0.,4.8,0.,4.8
1979-08-01 12:16:19.590 ,4,0,,0,5.,4.8,2.,4.8,,0,0.,4.8,0.,4.8
1979-08-01 12:16:24.390 ,4,0,,0,5.,4.8,0.,4.8,,0,0.,4.8,1.,4.8
1979-08-01 12:16:29.190 ,4,0,,0,3.,4.8,0.,4.8,,0,0.,4.8,1.,4.8
1979-08-01 12:16:33.990 ,4,0,,0,4.,4.8,1.,4.8,,0,0.,4.8,1.,4.8
1979-08-01 12:16:38.790 ,4,0,,0,0.,4.8,0.,4.8,,0,0.,4.8,0.,4.8
1979-08-01 12:16:43.590 ,4,0,,0,0.,4.8,0.,4.8,,0,0.,4.8,0.,4.8
1979-08-01 12:16:48.390 ,5,0,,0,0.,4.8,0.,4.8,,0,0.,4.8,0.,4.8
1979-08-01 12:16:53.190 ,5,0,,0,0.,4.8,0.,4.8,,0,0.,4.8,0.,4.8
1979-08-01 12:16:57.990 ,5,0,,0,0.,4.8,0.,4.8,,0,0.,4.8,2.,4.8
1979-08-01 12:17:02.790 ,5,0,,0,4.,4.8,0.,4.8,,0,0.,4.8,1.,4.8
1979-08-01 12:17:07.590 ,5,0,,0,5.,4.8,0.,4.8,,0,0.,4.8,0.,4.8
1979-08-01 12:17:12.390 ,5,0,,0,6.,4.8,0.,4.8,,0,0.,4.8,0.,4.8
1979-08-01 12:17:17.190 ,5,0,,0,3.,4.8,0.,4.8,,0,0.,4.8,3.,4.8
1979-08-01 12:17:21.990 ,5,0,,0,2.,4.8,0.,4.8,,0,0.,4.8,0.,4.8
1979-08-01 12:17:26.790 ,5,0,,0,0.,4.8,0.,4.8,,0,0.,4.8,1.,4.8
1979-08-01 12:17:31.590 ,5,0,,0,0.,4.8,0.,4.8,,0,0.,4.8,0.,4.8
1979-08-01 12:17:36.390 ,6,0,,0,0.,4.8,0.,4.8,,0,0.,4.8,0.,4.8
1979-08-01 12:17:41.190 ,6,0,,0,0.,4.8,0.,4.8,,0,0.,4.8,0.,4.8
1979-08-01 12:17:45.990 ,6,0,,0,0.,4.8,0.,4.8,,0,0.,4.8,3.,4.8
1979-08-01 12:17:50.790 ,6,0,,0,6.,4.8,1.,4.8,,0,0.,4.8,1.,4.8
1979-08-01 12:17:55.590 ,6,0,,0,7.,4.8,1.,4.8,,0,0.,4.8,1.,4.8
1979-08-01 12:18:00.390 ,6,0,,0,9.,4.8,0.,4.8,,0,0.,4.8,0.,4.8
1979-08-01 12:18:05.190 ,6,0,,0,6.,4.8,0.,4.8,,0,0.,4.8,2.,4.8
1979-08-01 12:18:09.990 ,6,0,,0,5.,4.8,1.,4.8,,0,0.,4.8,1.,4.8
1979-08-01 12:18:14.790 ,6,0,,0,0.,4.8,0.,4.8,,0,0.,4.8,2.,4.8
1979-08-01 12:18:19.590 ,6,0,,0,0.,4.8,0.,4.8,,0,0.,4.8,2.,4.8
1979-08-01 12:18:24.390 ,0,0,,0,0.,4.8,0.,4.8,,0,0.,4.8,1.,4.8
1979-08-01 12:18:29.190 ,0,0,,0,0.,4.8,0.,4.8,,0,0.,4.8,0.,4.8
1979-08-01 12:18:33.990 ,0,0,,0,0.,4.8,0.,4.8,,0,0.,4.8,0.,4.8
1979-08-01 12:18:38.790 ,0,0,,0,0.,4.8,0.,4.8,,0,0.,4.8,0.,4.8
1979-08-01 12:18:43.590 ,0,0,,0,1.,4.8,0.,4.8,,0,0.,4.8,0.,4.8
1979-08-01 12:18:48.390 ,0,0,,0,0.,4.8,0.,4.8,,0,0.,4.8,0.,4.8
1979-08-01 12:18:53.190 ,0,0,,0,1.,4.8,0.,4.8,,0,0.,4.8,1.,4.8
1979-08-01 12:18:57.990 ,0,0,,0,0.,4.8,0.,4.8,,0,1.,4.8,0.,4.8
1979-08-01 12:19:02.790 ,0,0,,0,0.,4.8,2.,4.8,,0,0.,4.8,0.,4.8
1979-08-01 12:19:07.590 ,0,0,,0,0.,4.8,0.,4.8,,0,0.,4.8,1.,4.8
1979-08-01 12:19:12.390 ,0,0,,0,0.,4.8,0.,4.8,,0,0.,4.8,0.,4.8
1979-08-01 12:19:17.190 ,0,0,,0,0.,4.8,0.,4.8,,0,0.,4.8,0.,4.8
1979-08-01 12:19:21.990 ,0,0,,0,0.,4.8,0.,4.8,,0,0.,4.8,0.,4.8
1979-08-01 12:19:26.790 ,0,0,,0,4.,4.8,0.,4.8,,0,0.,4.8,0.,4.8
1979-08-01 12:19:31.590 ,0,0,,0,4.,4.8,0.,4.8,,0,1.,4.8,0.,4.8
1979-08-01 12:19:36.390 ,0,1,,0,2.,4.8,0.,4.8,,0,0.,4.8,0.,4.8
1979-08-01 12:19:41.190 ,0,1,,0,2.,4.8,0.,4.8,,0,0.,4.8,1.,4.8
1979-08-01 12:19:45.990 ,0,1,,0,4.,4.8,1.,4.8,,0,0.,4.8,3.,4.8
1979-08-01 12:19:50.790 ,0,1,,0,0.,4.8,0.,4.8,,0,0.,4.8,1.,4.8
1979-08-01 12:19:55.590 ,0,1,,0,0.,4.8,0.,4.8,,0,0.,4.8,3.,4.8
1979-08-01 12:20:00.390 ,4,1,,0,0.,4.8,0.,4.8,,0,0.,4.8,0.,4.8
1979-08-01 12:20:05.190 ,4,1,,0,0.,4.8,0.,4.8,,0,0.,4.8,0.,4.8
1979-08-01 12:20:09.990 ,4,1,,0,1.,4.8,0.,4.8,,0,0.,4.8,0.,4.8
1979-08-01 12:20:14.790 ,4,1,,0,4.,4.8,0.,4.8,,0,0.,4.8,0.,4.8
1979-08-01 12:20:19.590 ,4,1,,0,6.,4.8,0.,4.8,,0,0.,4.8,0.,4.8
1979-08-01 12:20:24.390 ,7,1,,0,5.,4.8,0.,4.8,,0,0.,4.8,0.,4.8
1979-08-01 12:20:29.190 ,7,1,,0,3.,4.8,1.,4.8,,0,0.,4.8,1.,4.8
1979-08-01 12:20:33.990 ,7,1,,0,4.,4.8,1.,4.8,,0,0.,4.8,5.,4.8
1979-08-01 12:20:38.790 ,7,1,,0,0.,4.8,0.,4.8,,0,0.,4.8,0.,4.8
1979-08-01 12:20:43.590 ,7,1,,0,0.,4.8,0.,4.8,,0,0.,4.8,0.,4.8
1979-08-01 12:20:48.390 ,3,1,,0,0.,4.8,0.,4.8,,0,0.,4.8,2.,4.8
1979-08-01 12:20:53.190 ,3,1,,0,0.,4.8,0.,4.8,,0,0.,4.8,1.,4.8
1979-08-01 12:20:57.990 ,3,1,,0,1.,4.8,0.,4.8,,0,0.,4.8,0.,4.8
1979-08-01 12:21:02.790 ,3,1,,0,1.,4.8,0.,4.8,,0,0.,4.8,2.,4.8
1979-08-01 12:21:07.590 ,3,1,,0,7.,4.8,1.,4.8,,0,0.,4.8,2.,4.8
1979-08-01 12:21:12.390 ,0,1,,0,3.,4.8,0.,4.8,,0,0.,4.8,0.,4.8
1979-08-01 12:21:17.190 ,0,1,,0,3.,4.8,1.,4.8,,0,0.,4.8,1.,4.8
1979-08-01 12:21:21.990 ,0,1,,0,1.,4.8,0.,4.8,,0,0.,4.8,0.,4.8
1979-08-01 12:21:26.790 ,0,1,,0,0.,4.8,0.,4.8,,0,0.,4.8,2.,4.8
1979-08-01 12:21:31.590 ,0,1,,0,0.,4.8,0.,4.8,,0,0.,4.8,3.,4.8
1979-08-01 12:21:36.390 ,4,1,,0,0.,4.8,0.,4.8,,0,0.,4.8,2.,4.8
1979-08-01 12:21:41.190 ,4,1,,0,0.,4.8,0.,4.8,,0,0.,4.8,1.,4.8
1979-08-01 12:21:45.990 ,4,1,,0,1.,4.8,0.,4.8,,0,0.,4.8,1.,4.8
1979-08-01 12:21:50.790 ,4,1,,0,4.,4.8,0.,4.8,,0,0.,4.8,0.,4.8
1979-08-01 12:21:55.590 ,4,1,,0,4.,4.8,0.,4.8,,0,0.,4.8,0.,4.8
1979-08-01 12:22:00.390 ,0,0,,0,6.,4.8,2.,4.8,,0,0.,4.8,2.,4.8
1979-08-01 12:22:05.190 ,0,0,,0,9.,4.8,2.,4.8,,0,0.,4.8,0.,4.8
1979-08-01 12:22:09.990 ,0,0,,0,2.,4.8,0.,4.8,,0,0.,4.8,3.,4.8
1979-08-01 12:22:14.790 ,0,0,,0,1.,4.8,0.,4.8,,0,0.,4.8,0.,4.8
1979-08-01 12:22:19.590 ,0,0,,0,,0,,0,,0,,0,,0
1979-08-01 12:22:24.390 ,3,1,,0,0.,4.8,0.,4.8,,0,0.,4.8,0.,4.8
1979-08-01 12:22:29.190 ,3,1,,0,0.,4.8,0.,4.8,,0,0.,4.8,0.,4.8
1979-08-01 12:22:33.990 ,3,1,,0,0.,4.8,0.,4.8,,0,1.,4.8,2.,4.8
1979-08-01 12:22:38.790 ,3,1,,0,1.,4.8,0.,4.8,,0,0.,4.8,0.,4.8
1979-08-01 12:22:43.590 ,3,1,,0,5.,4.8,0.,4.8,,0,0.,4.8,0.,4.8
1979-08-01 12:22:48.390 ,0,1,,0,3.,4.8,1.,4.8,,0,0.,4.8,0.,4.8
1979-08-01 12:22:53.190 ,0,1,,0,5.,4.8,0.,4.8,,0,0.,4.8,0.,4.8
1979-08-01 12:22:57.990 ,0,1,,0,3.,4.8,0.,4.8,,0,0.,4.8,1.,4.8
1979-08-01 12:23:02.790 ,0,1,,0,1.,4.8,0.,4.8,,0,0.,4.8,2.,4.8
1979-08-01 12:23:07.590 ,0,1,,0,0.,4.8,0.,4.8,,0,0.,4.8,3.,4.8
1979-08-01 12:23:12.390 ,4,1,,0,0.,4.8,0.,4.8,,0,0.,4.8,1.,4.8
1979-08-01 12:23:17.190 ,4,1,,0,0.,4.8,0.,4.8,,0,0.,4.8,0.,4.8
1979-08-01 12:23:21.990 ,4,1,,0,1.,4.8,0.,4.8,,0,0.,4.8,0.,4.8
1979-08-01 12:23:26.790 ,4,1,,0,1.,4.8,0.,4.8,,0,0.,4.8,0.,4.8
1979-08-01 12:23:31.590 ,4,1,,0,5.,4.8,1.,4.8,,0,0.,4.8,0.,4.8
1979-08-01 12:23:36.390 ,7,1,,0,6.,4.8,1.,4.8,,0,0.,4.8,0.,4.8
1979-08-01 12:23:41.190 ,7,1,,0,5.,4.8,1.,4.8,,0,0.,4.8,0.,4.8
1979-08-01 12:23:45.990 ,7,1,,0,2.,4.8,1.,4.8,,0,0.,4.8,2.,4.8
1979-08-01 12:23:50.790 ,7,1,,0,0.,4.8,0.,4.8,,0,0.,4.8,0.,4.8
1979-08-01 12:23:55.590 ,7,1,,0,0.,4.8,0.,4.8,,0,0.,4.8,0.,4.8
1979-08-01 12:24:00.390 ,3,1,,0,0.,4.8,0.,4.8,,0,0.,4.8,1.,4.8
1979-08-01 12:24:05.190 ,3,1,,0,0.,4.8,0.,4.8,,0,0.,4.8,1.,4.8
1979-08-01 12:24:09.990 ,3,1,,0,0.,4.8,0.,4.8,,0,0.,4.8,1.,4.8
1979-08-01 12:24:14.790 ,3,1,,0,2.,4.8,0.,4.8,,0,0.,4.8,0.,4.8
1979-08-01 12:24:19.590 ,3,1,,0,4.,4.8,0.,4.8,,0,0.,4.8,1.,4.8
1979-08-01 12:24:24.390 ,0,1,,0,4.,4.8,0.,4.8,,0,0.,4.8,0.,4.8
1979-08-01 12:24:29.190 ,0,1,,0,5.,4.8,0.,4.8,,0,0.,4.8,0.,4.8
1979-08-01 12:24:33.990 ,0,1,,0,3.,4.8,1.,4.8,,0,0.,4.8,0.,4.8
1979-08-01 12:24:38.790 ,0,1,,0,0.,4.8,0.,4.8,,0,0.,4.8,1.,4.8
1979-08-01 12:24:43.590 ,0,1,,0,0.,4.8,0.,4.8,,0,0.,4.8,2.,4.8
1979-08-01 12:24:48.390 ,4,1,,0,0.,4.8,0.,4.8,,0,0.,4.8,0.,4.8
1979-08-01 12:24:53.190 ,4,1,,0,,0,,0,,0,,0,,0
1979-08-01 12:24:57.990 ,4,1,,0,1.,4.8,1.,4.8,,0,0.,4.8,0.,4.8
1979-08-01 12:25:02.790 ,4,1,,0,3.,4.8,0.,4.8,,0,0.,4.8,1.,4.8
1979-08-01 12:25:07.590 ,4,1,,0,4.,4.8,0.,4.8,,0,0.,4.8,0.,4.8
1979-08-01 12:25:12.390 ,7,1,,0,6.,4.8,1.,4.8,,0,0.,4.8,0.,4.8
1979-08-01 12:25:17.190 ,7,1,,0,1.,4.8,0.,4.8,,0,0.,4.8,1.,4.8
1979-08-01 12:25:21.990 ,7,1,,0,5.,4.8,1.,4.8,,0,0.,4.8,3.,4.8
1979-08-01 12:25:26.790 ,7,1,,0,1.,4.8,0.,4.8,,0,0.,4.8,0.,4.8
1979-08-01 12:25:31.590 ,7,1,,0,0.,4.8,0.,4.8,,0,0.,4.8,0.,4.8
1979-08-01 12:25:36.390 ,3,1,,0,1.,4.8,0.,4.8,,0,1.,4.8,1.,4.8
1979-08-01 12:25:41.190 ,3,1,,0,0.,4.8,0.,4.8,,0,0.,4.8,1.,4.8
1979-08-01 12:25:45.990 ,3,1,,0,2.,4.8,0.,4.8,,0,0.,4.8,0.,4.8
1979-08-01 12:25:50.790 ,3,1,,0,2.,4.8,0.,4.8,,0,0.,4.8,1.,4.8
1979-08-01 12:25:55.590 ,3,1,,0,2.,4.8,0.,4.8,,0,0.,4.8,1.,4.8
1979-08-01 12:26:00.390 ,0,1,,0,4.,4.8,0.,4.8,,0,0.,4.8,1.,4.8
1979-08-01 12:26:05.190 ,0,1,,0,3.,4.8,0.,4.8,,0,0.,4.8,0.,4.8
1979-08-01 12:26:09.990 ,0,1,,0,3.,4.8,1.,4.8,,0,0.,4.8,0.,4.8
1979-08-01 12:26:14.790 ,0,1,,0,0.,4.8,0.,4.8,,0,0.,4.8,3.,4.8
1979-08-01 12:26:19.590 ,0,1,,0,0.,4.8,0.,4.8,,0,0.,4.8,0.,4.8
1979-08-01 12:27:12.390 ,0,0,,0,0.,4.8,0.,4.8,,0,0.,4.8,0.,4.8
1979-08-01 12:27:17.190 ,0,0,,0,0.,4.8,0.,4.8,,0,0.,4.8,1.,4.8
1979-08-01 12:27:21.990 ,0,0,,0,0.,4.8,0.,4.8,,0,0.,4.8,0.,4.8
1979-08-01 12:27:26.790 ,0,0,,0,5.,4.8,0.,4.8,,0,0.,4.8,0.,4.8
1979-08-01 12:27:31.590 ,0,0,,0,6.,4.8,1.,4.8,,0,0.,4.8,0.,4.8
1979-08-01 12:27:36.390 ,0,1,,0,4.,4.8,1.,4.8,,0,0.,4.8,1.,4.8
1979-08-01 12:27:41.190 ,0,1,,0,2.,4.8,0.,4.8,,0,0.,4.8,0.,4.8
1979-08-01 12:27:45.990 ,0,1,,0,4.,4.8,0.,4.8,,0,0.,4.8,0.,4.8
1979-08-01 12:27:50.790 ,0,1,,0,0.,4.8,0.,4.8,,0,0.,4.8,1.,4.8
1979-08-01 12:27:55.590 ,0,1,,0,0.,4.8,0.,4.8,,0,0.,4.8,1.,4.8
1979-08-01 12:28:00.390 ,4,1,,0,0.,4.8,0.,4.8,,0,0.,4.8,3.,4.8
1979-08-01 12:28:05.190 ,4,1,,0,0.,4.8,0.,4.8,,0,0.,4.8,1.,4.8
1979-08-01 12:28:09.990 ,4,1,,0,3.,4.8,0.,4.8,,0,0.,4.8,0.,4.8
1979-08-01 12:28:14.790 ,4,1,,0,3.,4.8,0.,4.8,,0,0.,4.8,0.,4.8
1979-08-01 12:28:19.590 ,4,1,,0,2.,4.8,0.,4.8,,0,0.,4.8,0.,4.8
1979-08-01 12:28:24.390 ,7,1,,0,4.,4.8,0.,4.8,,0,0.,4.8,2.,4.8
1979-08-01 12:28:29.190 ,7,1,,0,6.,4.8,0.,4.8,,0,0.,4.8,2.,4.8
1979-08-01 12:28:33.990 ,7,1,,0,10.,4.8,1.,4.8,,0,0.,4.8,2.,4.8
1979-08-01 12:28:38.790 ,7,1,,0,0.,4.8,0.,4.8,,0,0.,4.8,0.,4.8
1979-08-01 12:28:43.590 ,7,1,,0,0.,4.8,0.,4.8,,0,0.,4.8,0.,4.8
1979-08-01 12:28:48.390 ,3,1,,0,0.,4.8,0.,4.8,,0,0.,4.8,2.,4.8
1979-08-01 12:28:53.190 ,3,1,,0,0.,4.8,0.,4.8,,0,0.,4.8,1.,4.8
1979-08-01 12:28:57.990 ,3,1,,0,1.,4.8,0.,4.8,,0,0.,4.8,1.,4.8
1979-08-01 12:29:02.790 ,3,1,,0,3.,4.8,0.,4.8,,0,0.,4.8,0.,4.8
1979-08-01 12:29:07.590 ,3,1,,0,6.,4.8,1.,4.8,,0,0.,4.8,2.,4.8
1979-08-01 12:29:12.390 ,0,1,,0,4.,4.8,1.,4.8,,0,0.,4.8,0.,4.8
1979-08-01 12:29:17.190 ,0,1,,0,2.,4.8,0.,4.8,,0,0.,4.8,0.,4.8
1979-08-01 12:29:21.990 ,0,1,,0,5.,4.8,0.,4.8,,0,0.,4.8,1.,4.8
1979-08-01 12:29:26.790 ,0,1,,0,0.,4.8,0.,4.8,,0,0.,4.8,1.,4.8
1979-08-01 12:29:31.590 ,0,1,,0,0.,4.8,0.,4.8,,0,0.,4.8,5.,4.8
1979-08-01 12:29:36.390 ,0,0,,0,0.,4.8,0.,4.8,,0,0.,4.8,0.,4.8
1979-08-01 12:29:41.190 ,0,0,,0,0.,4.8,0.,4.8,,0,0.,4.8,0.,4.8
1979-08-01 12:29:45.990 ,0,0,,0,2.,4.8,0.,4.8,,0,0.,4.8,0.,4.8
1979-08-01 12:29:50.790 ,0,0,,0,4.,4.8,0.,4.8,,0,0.,4.8,0.,4.8
1979-08-01 12:29:55.590 ,0,0,,0,5.,4.8,0.,4.8,,0,0.,4.8,0.,4.8
1979-08-01 12:30:00.390 ,0,0,,0,4.,4.8,0.,4.8,,0,0.,4.8,0.,4.8
1979-08-01 12:30:05.190 ,0,0,,0,2.,4.8,0.,4.8,,0,0.,4.8,0.,4.8
1979-08-01 12:30:09.990 ,0,0,,0,9.,4.8,1.,4.8,,0,0.,4.8,3.,4.8
1979-08-01 12:30:14.790 ,0,0,,0,0.,4.8,0.,4.8,,0,0.,4.8,0.,4.8
1979-08-01 12:30:19.590 ,0,0,,0,0.,4.8,0.,4.8,,0,1.,4.8,0.,4.8
1979-08-01 12:30:24.390 ,5,0,,0,0.,4.8,0.,4.8,,0,0.,4.8,1.,4.8
1979-08-01 12:30:29.190 ,5,0,,0,0.,4.8,0.,4.8,,0,0.,4.8,3.,4.8
1979-08-01 12:30:33.990 ,5,0,,0,1.,4.8,0.,4.8,,0,0.,4.8,0.,4.8
1979-08-01 12:30:38.790 ,5,0,,0,5.,4.8,0.,4.8,,0,0.,4.8,0.,4.8
1979-08-01 12:30:43.590 ,5,0,,0,7.,4.8,2.,4.8,,0,0.,4.8,0.,4.8
1979-08-01 12:30:48.390 ,5,0,,0,5.,4.8,1.,4.8,,0,0.,4.8,1.,4.8
1979-08-01 12:30:53.190 ,5,0,,0,4.,4.8,0.,4.8,,0,0.,4.8,1.,4.8
1979-08-01 12:30:57.990 ,5,0,,0,5.,4.8,0.,4.8,,0,0.,4.8,0.,4.8
1979-08-01 12:31:02.790 ,5,0,,0,0.,4.8,0.,4.8,,0,0.,4.8,0.,4.8
1979-08-01 12:31:07.590 ,5,0,,0,0.,4.8,0.,4.8,,0,0.,4.8,0.,4.8
1979-08-01 12:31:12.390 ,4,0,,0,0.,4.8,0.,4.8,,0,0.,4.8,1.,4.8
1979-08-01 12:31:17.190 ,4,0,,0,0.,4.8,0.,4.8,,0,0.,4.8,1.,4.8
1979-08-01 12:31:21.990 ,4,0,,0,0.,4.8,0.,4.8,,0,0.,4.8,0.,4.8
1979-08-01 12:31:26.790 ,4,0,,0,6.,4.8,1.,4.8,,0,0.,4.8,0.,4.8
1979-08-01 12:31:31.590 ,4,0,,0,5.,4.8,0.,4.8,,0,0.,4.8,0.,4.8
1979-08-01 12:31:36.390 ,4,0,,0,4.,4.8,0.,4.8,,0,0.,4.8,1.,4.8
1979-08-01 12:31:41.190 ,4,0,,0,6.,4.8,0.,4.8,,0,0.,4.8,0.,4.8
1979-08-01 12:31:45.990 ,4,0,,0,,0,,0,,0,,0,,0
1979-08-01 12:31:50.790 ,4,0,,0,0.,4.8,0.,4.8,,0,0.,4.8,0.,4.8
1979-08-01 12:31:55.590 ,4,0,,0,0.,4.8,0.,4.8,,0,0.,4.8,0.,4.8
1979-08-01 12:32:00.390 ,3,0,,0,0.,4.8,0.,4.8,,0,0.,4.8,1.,4.8
1979-08-01 12:32:05.190 ,3,0,,0,0.,4.8,0.,4.8,,0,0.,4.8,0.,4.8
1979-08-01 12:32:09.990 ,3,0,,0,2.,4.8,0.,4.8,,0,0.,4.8,0.,4.8
1979-08-01 12:32:14.790 ,3,0,,0,2.,4.8,1.,4.8,,0,0.,4.8,1.,4.8
1979-08-01 12:32:19.590 ,3,0,,0,6.,4.8,0.,4.8,,0,0.,4.8,0.,4.8
1979-08-01 12:32:24.390 ,3,0,,0,8.,4.8,1.,4.8,,0,0.,4.8,0.,4.8
1979-08-01 12:32:29.190 ,3,0,,0,6.,4.8,0.,4.8,,0,0.,4.8,1.,4.8
1979-08-01 12:32:33.990 ,3,0,,0,5.,4.8,0.,4.8,,0,0.,4.8,0.,4.8
1979-08-01 12:32:38.790 ,3,0,,0,0.,4.8,0.,4.8,,0,0.,4.8,0.,4.8